Regional Weather Roundup
Issued by NWS Charleston, SC

Current Version | Previous Version | Text Only | Print | Product List | Glossary Off
Versions: 1 2 3 4 5 6 7 8 9 10 11 12 13 14 15 16 17 18 19 20 21 22 23 24 25 26 27 28 29 30 31 32 33 34 35 36 37 38 39 40 41 42 43 44 45 46 47 48 49 50

302
ASUS42 KCHS 250127
RWRCHS

REGIONAL WEATHER ROUNDUP
NATIONAL WEATHER SERVICE CHARLESTON SC
900 PM EDT FRI MAR 24 2017

NOTE: "FAIR" INDICATES FEW OR NO CLOUDS BELOW 12,000 FEET WITH NO
SIGNIFICANT WEATHER AND/OR OBSTRUCTIONS TO VISIBILITY.

NOT ALL STATIONS ARE QUALITY CONTROLLED. USE DATA WITH CAUTION...
ESPECIALLY DEWPOINT OBSERVATIONS.

SCZ027-030-031-034>040-042>050-250200-
...SOUTHEAST SOUTH CAROLINA...

CITY           SKY/WX    TMP DP  RH WIND       PRES   REMARKS
N CHARLESTON   PTCLDY    62  50  64 SE7       30.38S
WATERFRONT PRK   N/A     62  58  87 VRB2      30.37S
JOHNS ISLAND   FAIR      61  55  82 CALM      30.38S
PINOPOLIS        N/A     64  50  59 VRB2      30.28S
MONCKS CORNER  FAIR      59  46  63 CALM      30.38S
SUMMERVILLE    FAIR      61  50  67 CALM      30.39R
BEAUFORT MCAS  MOCLDY    65  58  78 SE6       30.37S
BEAUFORT ARPT  MOCLDY    63  55  77 E3        30.37S
HILTON HEAD IS CLOUDY    64  59  82 NE5       30.38S
WALTERBORO     CLOUDY    59  50  72 CALM      30.38S
ALLENDALE      FAIR      64  52  63 SE8       30.35S

...SOUTHERN MIDLANDS AND PEE DEE...

CITY           SKY/WX    TMP DP  RH WIND       PRES   REMARKS
GEORGETOWN     FAIR      54  52  94 CALM      30.40S
KINGSTREE      FAIR      61  46  59 SE6       30.37S
ORANGEBURG     CLOUDY    64  47  53 S8        30.35S
BARNWELL       FAIR      66  52  59 MISG      30.35R
AIKEN          FAIR      63  46  55 SE6       30.37R
MANNING        FAIR      63  46  55 S5        30.37R
COLUMBIA       CLOUDY    68  47  46 SE9       30.33S
SUMTER         CLEAR     64  48  56 S7        30.33S
FLORENCE       CLEAR     63  51  65 S8        30.36S
MYRTLE BEACH   NOT AVBL
N MYRTLE BEACH CLEAR     61  53  75 SE7       30.38F

$$

GAZ063-065-086>088-099>101-113>116-118-119-134>141-150-250200-
...SOUTHEAST GEORGIA...

CITY           SKY/WX    TMP DP  RH WIND       PRES   REMARKS
SAVANNAH ARPT  CLOUDY    65  54  67 E7        30.36S
HUNTER AAF     CLOUDY    65  58  79 E7        30.34S
FORT STEWART   PTCLDY    63  54  73 E3        30.33S
STATESBORO     CLOUDY    65  56  75 SE3       30.35S
SYLVANIA       CLOUDY   N/A N/A N/A CALM      30.36S
CLAXTON        FAIR     N/A N/A N/A E3        30.35S

...CSRA...CENTRAL AND FAR SOUTHEAST GEORGIA...

CITY           SKY/WX    TMP DP  RH WIND       PRES   REMARKS
THOMSON        CLOUDY    65  46  50 SW6       30.36S
AUGUSTA-BUSH   PTCLDY    68  48  48 S6        30.32R
AUGUSTA-DANIEL CLOUDY    69  45  41 SE5       30.33R
SWAINSBORO     FAIR      64  52  63 SE7       30.34S
VIDALIA        PTCLDY    66  54  63 SE6       30.34R
EASTMAN        FAIR      68  39  35 SE5       30.33S
HAZLEHURST     FAIR      67  56  66 SE5       30.32R
ALMA           CLEAR     66  52  60 E6        30.32R
WAYCROSS       CLEAR     68  57  68 SE9       30.33R
JESUP          FAIR      64  54  68 E3        30.35R
BAXLEY         FAIR      64  59  82 SE5       30.33R
BRUNSWICK      CLOUDY    61  59  94 NE3       30.36R
SAINT SIMONS   PTCLDY    64  58  80 NE6       30.34S

$$

SCZ027-028-034-036>038-045-046-048>050-GAZ119-141-250200-
...LAKE AND SUPPLEMENTAL COASTAL OBSERVATIONS...

STATION/POSITION TIME  TEMP    WIND        PRES    WAVE   SWELL
                       AIR SEA DIR/SP/G            HT/PER HT/PER/DIR
                 (UTC) (F)     (DEG/KT/KT) (MB)    (FT/S) (FT/S/D)
WINYAH BAY       0045   60     160/  1     1029.0S
LAKE MURRAY      0020   68     140/  2/  6 1026.1
ACE BASIN NERRS  0030   62        CALM     1028.0F
FORT PULASKI     0100   63 61  100/  6/  8 1028.5
SAPELO ISLAND    0100   62      70/  3     1028.0

$$

ANZ835-935-AMZ111-154-330-350-352-354-370-450-454-472-250200-
...C-MAN AND BUOY OBSERVATIONS...

STATION/POSITION TIME  TEMP    WIND        PRES    WAVE   SWELL
                       AIR SEA DIR/SP/G            HT/PER HT/PER/DIR
                 (UTC) (F)     (DEG/KT/KT) (MB)    (FT/S) (FT/S/D)
BUOY 41004       0050   70 72  150/ 10/ 12 1028.3F   4/ 8   3/130/ 8
BUOY 41008       0050   65 62   90/  8/  8 1027.4R   4/ 8   3/110/ 8
FOLLY BEACH CMAN 0100   62      80/  6/  7 1029.2F
CAPERS NEARSHORE 0108   62     100/  4/  6 1028.7F
FRIPP NEARSHORE  0108   62 60   90/  6/  8 1028.2S


STATION/POSITION TIME  TEMP    WIND        PRES    WAVE   SWELL
                       AIR SEA DIR/SP/G            HT/PER HT/PER/DIR
                 (UTC) (F)     (DEG/KT/KT) (MB)    (FT/S) (FT/S/D)
5E ST. MARYS GA  0100      64                N/A     4/ 9   2/100/11
FRYING PAN BUOY  0110   68 73  170/  8/ 14 1029.5
BUOY 41025       0050   66 74  200/ 19/ 23 1029.1F   4/ 9   3/ 70/ 9
CAPE LOOKOUT NC  0100   64     190/ 11/ 14 1029.1F
BUOY 41002       0050   64 74   80/ 12/ 17 1031.3R   5/11   5/ 10/11
BUOY 41010       NOT AVBL
ST AUGUSTINE FL  0100   67 67  100/  8/  8 1027.5R


$$




USA.gov is the U.S. government's official web portal to all federal, state and local government web resources and services.